| time (UTC) | temp F | wind direction | speed MPH | gust MPH | rain 1hr in | rain 24hr in | rain mn in | humidity % | barometer mb |
| 20260510185733 | 65 | 231 | 7.0 | 9.0 | 0.00 | 0.00 | 0.00 | 37 | 1022.1 |
| 20260510185232 | 65 | 220 | 6.0 | 11.0 | 0.00 | 0.00 | 0.00 | 36 | 1021.9 |
| 20260510184728 | 65 | 237 | 6.0 | 6.0 | 0.00 | 0.00 | 0.00 | 37 | 1021.9 |
| 20260510184225 | 64 | 189 | 6.0 | 10.0 | 0.00 | 0.00 | 0.00 | 37 | 1022.1 |
| 20260510183720 | 65 | 172 | 2.0 | 11.0 | 0.00 | 0.00 | 0.00 | 38 | 1022.1 |
| 20260510183215 | 65 | 304 | 2.0 | 4.0 | 0.00 | 0.00 | 0.00 | 37 | 1021.9 |
| 20260510182712 | 65 | 221 | 2.0 | 6.0 | 0.00 | 0.00 | 0.00 | 38 | 1021.9 |
| 20260510182207 | 66 | 159 | 3.0 | 16.0 | 0.00 | 0.00 | 0.00 | 38 | 1022.1 |
| 20260510181704 | 65 | 192 | 1.0 | 6.0 | 0.00 | 0.00 | 0.00 | 36 | 1021.9 |
| 20260510181200 | 64 | 220 | 6.0 | 10.0 | 0.00 | 0.00 | 0.00 | 36 | 1022.1 |
| 20260510180656 | 64 | 278 | 5.0 | 8.0 | 0.00 | 0.00 | 0.00 | 36 | 1022.2 |
| 20260510180154 | 64 | 225 | 6.0 | 8.0 | 0.00 | 0.00 | 0.00 | 36 | 1022.2 |
| 20260510175650 | 64 | 219 | 9.0 | 10.0 | 0.00 | 0.00 | 0.00 | 38 | 1022.2 |
| 20260510175146 | 64 | 339 | 0.0 | 5.0 | 0.00 | 0.00 | 0.00 | 36 | 1022.2 |
| 20260510174644 | 64 | 169 | 5.0 | 6.0 | 0.00 | 0.00 | 0.00 | 37 | 1022.1 |
| 20260510174141 | 63 | 212 | 4.0 | 13.0 | 0.00 | 0.00 | 0.00 | 38 | 1022.2 |
| 20260510173637 | 63 | 219 | 8.0 | 16.0 | 0.00 | 0.00 | 0.00 | 37 | 1022.1 |
| 20260510173133 | 63 | 203 | 3.0 | 4.0 | 0.00 | 0.00 | 0.00 | 38 | 1022.1 |
| 20260510172629 | 63 | 151 | 3.0 | 9.0 | 0.00 | 0.00 | 0.00 | 38 | 1022.1 |
| 20260510172125 | 62 | 127 | 2.0 | 11.0 | 0.00 | 0.00 | 0.00 | 37 | 1022.3 |
| 20260510171622 | 63 | 168 | 4.0 | 7.0 | 0.00 | 0.00 | 0.00 | 40 | 1022.2 |
| 20260510171120 | 62 | 228 | 7.0 | 12.0 | 0.00 | 0.00 | 0.00 | 36 | 1022.1 |
| 20260510170615 | 62 | 284 | 3.0 | 13.0 | 0.00 | 0.00 | 0.00 | 36 | 1022.3 |
| 20260510170112 | 62 | 345 | 0.0 | 3.0 | 0.00 | 0.00 | 0.00 | 37 | 1022.1 |
| 20260510165608 | 62 | 178 | 6.0 | 10.0 | 0.00 | 0.00 | 0.00 | 37 | 1022.1 |
| 20260510165104 | 61 | 259 | 3.0 | 6.0 | 0.00 | 0.00 | 0.00 | 39 | 1022.2 |
| 20260510164601 | 61 | 218 | 3.0 | 9.0 | 0.00 | 0.00 | 0.00 | 40 | 1022.1 |
| 20260510164058 | 62 | 255 | 1.0 | 8.0 | 0.00 | 0.00 | 0.00 | 41 | 1021.9 |
| 20260510163553 | 61 | 180 | 0.0 | 8.0 | 0.00 | 0.00 | 0.00 | 40 | 1021.8 |
| 20260510163050 | 62 | 196 | 5.0 | 9.0 | 0.00 | 0.00 | 0.00 | 42 | 1021.9 |
| 20260510162544 | 60 | 208 | 3.0 | 9.0 | 0.00 | 0.00 | 0.00 | 40 | 1021.8 |
| 20260510162042 | 60 | 213 | 4.0 | 10.0 | 0.00 | 0.00 | 0.00 | 40 | 1021.8 |
| 20260510161537 | 62 | 181 | 5.0 | 7.0 | 0.00 | 0.00 | 0.00 | 42 | 1021.8 |
| 20260510161034 | 60 | 229 | 6.0 | 10.0 | 0.00 | 0.00 | 0.00 | 41 | 1021.8 |
| 20260510160526 | 61 | 236 | 6.0 | 10.0 | 0.00 | 0.00 | 0.00 | 40 | 1021.9 |
| 20260510160025 | 60 | 209 | 3.0 | 7.0 | 0.00 | 0.00 | 0.00 | 42 | 1021.9 |
| 20260510155522 | 60 | 216 | 3.0 | 9.0 | 0.00 | 0.00 | 0.00 | 43 | 1021.7 |
| 20260510155018 | 59 | 222 | 9.0 | 10.0 | 0.00 | 0.00 | 0.00 | 40 | 1021.9 |
| 20260510154514 | 60 | 250 | 4.0 | 6.0 | 0.00 | 0.00 | 0.00 | 43 | 1021.9 |
| 20260510154009 | 59 | 225 | 11.0 | 11.0 | 0.00 | 0.00 | 0.00 | 41 | 1021.8 |
| 20260510153504 | 59 | 226 | 5.0 | 14.0 | 0.00 | 0.00 | 0.00 | 40 | 1021.8 |
| 20260510153002 | 59 | 200 | 3.0 | 8.0 | 0.00 | 0.00 | 0.00 | 41 | 1021.7 |
| 20260510152458 | 58 | 247 | 5.0 | 9.0 | 0.00 | 0.00 | 0.00 | 40 | 1021.6 |
| 20260510151949 | 59 | 223 | 6.0 | 6.0 | 0.00 | 0.00 | 0.00 | 41 | 1021.7 |
| 20260510151446 | 59 | 115 | 4.0 | 4.0 | 0.00 | 0.00 | 0.00 | 45 | 1021.8 |
| 20260510150942 | 60 | 212 | 3.0 | 3.0 | 0.00 | 0.00 | 0.00 | 42 | 1021.7 |
| 20260510150438 | 58 | 266 | 2.0 | 4.0 | 0.00 | 0.00 | 0.00 | 42 | 1021.7 |
| 20260510145933 | 59 | 350 | 3.0 | 3.0 | 0.00 | 0.00 | 0.00 | 39 | 1021.8 |
| 20260510145425 | 60 | 4 | 0.0 | 2.0 | 0.00 | 0.00 | 0.00 | 41 | 1021.7 |
| 20260510144921 | 58 | 123 | 0.0 | 2.0 | 0.00 | 0.00 | 0.00 | 40 | 1021.9 |
| 20260510144418 | 57 | 145 | 0.0 | 4.0 | 0.00 | 0.00 | 0.00 | 51 | 1021.8 |
| 20260510143913 | 56 | 76 | 3.0 | 6.0 | 0.00 | 0.00 | 0.00 | 48 | 1021.7 |
| 20260510143409 | 56 | 99 | 6.0 | 6.0 | 0.00 | 0.00 | 0.00 | 50 | 1021.7 |
| 20260510142907 | 55 | 99 | 0.0 | 4.0 | 0.00 | 0.00 | 0.00 | 52 | 1021.7 |
| 20260510142403 | 54 | 103 | 5.0 | 7.0 | 0.00 | 0.00 | 0.00 | 51 | 1021.6 |
| 20260510141900 | 53 | 102 | 3.0 | 6.0 | 0.00 | 0.00 | 0.00 | 54 | 1021.6 |
| 20260510141357 | 52 | 90 | 3.0 | 9.0 | 0.00 | 0.00 | 0.00 | 55 | 1021.7 |
| 20260510140854 | 51 | 90 | 5.0 | 9.0 | 0.00 | 0.00 | 0.00 | 55 | 1021.4 |
| 20260510140350 | 50 | 76 | 4.0 | 6.0 | 0.00 | 0.00 | 0.00 | 55 | 1021.4 |
| 20260510135843 | 49 | 100 | 3.0 | 8.0 | 0.00 | 0.00 | 0.00 | 55 | 1021.4 |
| 20260510135339 | 49 | 83 | 4.0 | 10.0 | 0.00 | 0.00 | 0.00 | 57 | 1021.4 |
| 20260510134837 | 48 | 139 | 2.0 | 6.0 | 0.00 | 0.00 | 0.00 | 58 | 1021.4 |
| 20260510134334 | 47 | 90 | 0.0 | 7.0 | 0.00 | 0.00 | 0.00 | 59 | 1021.3 |
| 20260510133830 | 46 | 90 | 1.0 | 6.0 | 0.00 | 0.00 | 0.00 | 59 | 1021.2 |
| 20260510133326 | 46 | 67 | 0.0 | 6.0 | 0.00 | 0.00 | 0.00 | 59 | 1021.2 |
| 20260510132822 | 46 | 98 | 0.0 | 11.0 | 0.00 | 0.00 | 0.00 | 60 | 1021.2 |
| 20260510132320 | 45 | 89 | 10.0 | 11.0 | 0.00 | 0.00 | 0.00 | 60 | 1021.1 |
| 20260510131817 | 45 | 114 | 0.0 | 9.0 | 0.00 | 0.00 | 0.00 | 61 | 1021.1 |
| 20260510131314 | 44 | 81 | 2.0 | 10.0 | 0.00 | 0.00 | 0.00 | 62 | 1021.1 |
| 20260510130811 | 43 | 121 | 0.0 | 6.0 | 0.00 | 0.00 | 0.00 | 62 | 1021.2 |
| 20260510130308 | 43 | 35 | 3.0 | 9.0 | 0.00 | 0.00 | 0.00 | 62 | 1021.2 |
| 20260510125804 | 43 | 92 | 5.0 | 8.0 | 0.00 | 0.00 | 0.00 | 62 | 1021.2 |
| 20260510125300 | 41 | 92 | 5.0 | 8.0 | 0.00 | 0.00 | 0.00 | 66 | 1021.0 |
| 20260510124757 | 42 | 336 | 0.0 | 6.0 | 0.00 | 0.00 | 0.00 | 65 | 1020.8 |
| 20260510124254 | 41 | 108 | 6.0 | 7.0 | 0.00 | 0.00 | 0.00 | 66 | 1020.8 |
| 20260510123750 | 41 | 144 | 6.0 | 11.0 | 0.00 | 0.00 | 0.00 | 66 | 1021.1 |
| 20260510123246 | 41 | 68 | 7.0 | 14.0 | 0.00 | 0.00 | 0.00 | 66 | 1021.1 |
| 20260510122742 | 41 | 296 | 3.0 | 9.0 | 0.00 | 0.00 | 0.00 | 65 | 1021.0 |
| 20260510122238 | 41 | 83 | 1.0 | 14.0 | 0.00 | 0.00 | 0.00 | 65 | 1020.8 |
| 20260510121734 | 41 | 103 | 5.0 | 10.0 | 0.00 | 0.00 | 0.00 | 66 | 1021.0 |
| 20260510121232 | 40 | 90 | 2.0 | 7.0 | 0.00 | 0.00 | 0.00 | 66 | 1021.0 |
| 20260510120730 | 40 | 83 | 3.0 | 9.0 | 0.00 | 0.00 | 0.00 | 67 | 1021.1 |
| 20260510120226 | 41 | 123 | 1.0 | 8.0 | 0.00 | 0.00 | 0.00 | 66 | 1020.8 |
| 20260510115722 | 40 | 75 | 2.0 | 14.0 | 0.00 | 0.00 | 0.00 | 67 | 1021.1 |
| 20260510115220 | 40 | 69 | 4.0 | 10.0 | 0.00 | 0.00 | 0.00 | 67 | 1021.0 |
| 20260510114715 | 40 | 90 | 3.0 | 15.0 | 0.00 | 0.00 | 0.00 | 68 | 1021.0 |
| 20260510114212 | 40 | 59 | 6.0 | 11.0 | 0.00 | 0.00 | 0.00 | 67 | 1020.8 |
| 20260510113707 | 40 | 102 | 7.0 | 10.0 | 0.00 | 0.00 | 0.00 | 68 | 1020.7 |
| 20260510113204 | 40 | 83 | 6.0 | 11.0 | 0.00 | 0.00 | 0.00 | 68 | 1020.7 |
| 20260510112701 | 41 | 102 | 9.0 | 9.0 | 0.00 | 0.00 | 0.00 | 65 | 1021.0 |
| 20260510112158 | 41 | 100 | 7.0 | 7.0 | 0.00 | 0.00 | 0.00 | 64 | 1020.8 |
| 20260510111654 | 41 | 107 | 3.0 | 11.0 | 0.00 | 0.00 | 0.00 | 64 | 1020.8 |
| 20260510111151 | 41 | 85 | 3.0 | 7.0 | 0.00 | 0.00 | 0.00 | 65 | 1020.8 |
| 20260510110645 | 41 | 46 | 4.0 | 11.0 | 0.00 | 0.00 | 0.00 | 64 | 1020.7 |
| 20260510110143 | 42 | 23 | 4.0 | 14.0 | 0.00 | 0.00 | 0.00 | 64 | 1020.6 |
| 20260510105639 | 41 | 110 | 2.0 | 13.0 | 0.00 | 0.00 | 0.00 | 64 | 1020.7 |
| 20260510105138 | 41 | 85 | 4.0 | 10.0 | 0.00 | 0.00 | 0.00 | 64 | 1020.8 |
| 20260510104636 | 42 | 96 | 8.0 | 11.0 | 0.00 | 0.00 | 0.00 | 63 | 1020.6 |
| 20260510104132 | 42 | 93 | 6.0 | 10.0 | 0.00 | 0.00 | 0.00 | 63 | 1020.6 |
| 20260510103629 | 42 | 69 | 4.0 | 10.0 | 0.00 | 0.00 | 0.00 | 63 | 1020.7 |
| 20260510103125 | 42 | 98 | 3.0 | 9.0 | 0.00 | 0.00 | 0.00 | 63 | 1020.6 |
| 20260510102620 | 41 | 85 | 4.0 | 14.0 | 0.00 | 0.00 | 0.00 | 64 | 1020.7 |
| 20260510102117 | 41 | 75 | 5.0 | 7.0 | 0.00 | 0.00 | 0.00 | 64 | 1020.8 |
| 20260510101615 | 41 | 55 | 4.0 | 9.0 | 0.00 | 0.00 | 0.00 | 63 | 1020.7 |
| 20260510101112 | 42 | 73 | 6.0 | 9.0 | 0.00 | 0.00 | 0.00 | 62 | 1020.7 |
| 20260510100608 | 42 | 104 | 5.0 | 8.0 | 0.00 | 0.00 | 0.00 | 61 | 1020.7 |
| 20260510100106 | 42 | 20 | 3.0 | 7.0 | 0.00 | 0.00 | 0.00 | 61 | 1020.6 |
| 20260510095602 | 43 | 96 | 6.0 | 10.0 | 0.00 | 0.00 | 0.00 | 61 | 1020.7 |
| 20260510095101 | 43 | 103 | 10.0 | 12.0 | 0.00 | 0.00 | 0.00 | 60 | 1020.6 |
| 20260510094601 | 43 | 76 | 5.0 | 13.0 | 0.00 | 0.00 | 0.00 | 61 | 1021.0 |
| 20260510094056 | 43 | 71 | 6.0 | 9.0 | 0.00 | 0.00 | 0.00 | 61 | 1020.6 |
| 20260510093553 | 44 | 56 | 3.0 | 12.0 | 0.00 | 0.00 | 0.00 | 59 | 1020.6 |
| 20260510093049 | 43 | 71 | 3.0 | 9.0 | 0.00 | 0.00 | 0.00 | 60 | 1020.6 |
| 20260510092547 | 43 | 82 | 3.0 | 11.0 | 0.00 | 0.00 | 0.00 | 61 | 1020.7 |
| 20260510092046 | 42 | 97 | 4.0 | 12.0 | 0.00 | 0.00 | 0.00 | 62 | 1020.6 |
| 20260510091543 | 43 | 97 | 5.0 | 12.0 | 0.00 | 0.00 | 0.00 | 61 | 1020.8 |
| 20260510091039 | 44 | 107 | 6.0 | 8.0 | 0.00 | 0.00 | 0.00 | 58 | 1020.7 |
| 20260510090536 | 40 | 26 | 1.0 | 5.0 | 0.00 | 0.00 | 0.00 | 65 | 1020.7 |
| 20260510090032 | 40 | 157 | 0.0 | 2.0 | 0.00 | 0.00 | 0.00 | 64 | 1020.7 |
| 20260510085527 | 41 | 131 | 1.0 | 4.0 | 0.00 | 0.00 | 0.00 | 64 | 1020.6 |
| 20260510085023 | 42 | 150 | 2.0 | 4.0 | 0.00 | 0.00 | 0.00 | 61 | 1020.6 |
| 20260510084520 | 44 | 120 | 4.0 | 10.0 | 0.00 | 0.00 | 0.00 | 59 | 1020.5 |
| 20260510084017 | 44 | 88 | 10.0 | 11.0 | 0.00 | 0.00 | 0.00 | 59 | 1020.5 |
| 20260510083513 | 44 | 98 | 4.0 | 12.0 | 0.00 | 0.00 | 0.00 | 59 | 1020.4 |
| 20260510083010 | 43 | 135 | 4.0 | 9.0 | 0.00 | 0.00 | 0.00 | 60 | 1020.4 |
| 20260510082507 | 43 | 79 | 3.0 | 11.0 | 0.00 | 0.00 | 0.00 | 60 | 1020.2 |
| 20260510082006 | 44 | 24 | 2.0 | 9.0 | 0.00 | 0.00 | 0.00 | 59 | 1020.4 |
| 20260510081502 | 43 | 354 | 3.0 | 9.0 | 0.00 | 0.00 | 0.00 | 60 | 1020.5 |
| 20260510080958 | 44 | 99 | 8.0 | 10.0 | 0.00 | 0.00 | 0.00 | 60 | 1020.4 |
| 20260510080456 | 43 | 90 | 3.0 | 8.0 | 0.00 | 0.00 | 0.00 | 60 | 1020.4 |
| 20260510075954 | 44 | 92 | 5.0 | 7.0 | 0.00 | 0.00 | 0.00 | 60 | 1020.6 |
| 20260510075451 | 44 | 26 | 3.0 | 13.0 | 0.00 | 0.00 | 0.00 | 60 | 1020.4 |
| 20260510074948 | 43 | 90 | 3.0 | 11.0 | 0.00 | 0.00 | 0.00 | 60 | 1020.5 |
| 20260510074445 | 43 | 106 | 3.0 | 8.0 | 0.00 | 0.00 | 0.00 | 61 | 1020.4 |
| 20260510073941 | 43 | 42 | 3.0 | 13.0 | 0.00 | 0.00 | 0.00 | 61 | 1020.6 |
| 20260510073437 | 44 | 101 | 6.0 | 9.0 | 0.00 | 0.00 | 0.00 | 60 | 1020.4 |
| 20260510072934 | 44 | 99 | 5.0 | 12.0 | 0.00 | 0.00 | 0.00 | 60 | 1020.4 |
| 20260510072431 | 43 | 88 | 7.0 | 10.0 | 0.00 | 0.00 | 0.00 | 61 | 1020.2 |
| 20260510071927 | 43 | 83 | 3.0 | 11.0 | 0.00 | 0.00 | 0.00 | 61 | 1020.4 |
| 20260510071423 | 43 | 42 | 3.0 | 9.0 | 0.00 | 0.00 | 0.00 | 61 | 1020.4 |
| 20260510070922 | 43 | 81 | 7.0 | 9.0 | 0.00 | 0.00 | 0.00 | 61 | 1020.4 |
| 20260510070419 | 43 | 94 | 3.0 | 12.0 | 0.00 | 0.00 | 0.00 | 61 | 1020.5 |
| 20260510065914 | 43 | 95 | 8.0 | 11.0 | 0.00 | 0.00 | 0.00 | 61 | 1020.5 |
| 20260510065410 | 43 | 118 | 4.0 | 9.0 | 0.00 | 0.00 | 0.00 | 62 | 1020.5 |
| 20260510064907 | 44 | 73 | 0.0 | 8.0 | 0.00 | 0.00 | 0.00 | 60 | 1020.5 |
| 20260510064405 | 44 | 97 | 3.0 | 10.0 | 0.00 | 0.00 | 0.00 | 59 | 1020.5 |
| 20260510063901 | 44 | 265 | 2.0 | 9.0 | 0.00 | 0.00 | 0.00 | 60 | 1020.5 |
| 20260510063357 | 44 | 92 | 5.0 | 9.0 | 0.00 | 0.00 | 0.00 | 60 | 1020.4 |
| 20260510062855 | 44 | 93 | 8.0 | 8.0 | 0.00 | 0.00 | 0.00 | 60 | 1020.1 |
| 20260510062350 | 43 | 84 | 2.0 | 8.0 | 0.00 | 0.00 | 0.00 | 61 | 1020.2 |
| 20260510061845 | 44 | 108 | 3.0 | 6.0 | 0.00 | 0.00 | 0.00 | 61 | 1020.2 |
| 20260510061343 | 44 | 116 | 5.0 | 7.0 | 0.00 | 0.00 | 0.00 | 61 | 1020.4 |
| 20260510060838 | 44 | 344 | 0.0 | 7.0 | 0.00 | 0.00 | 0.00 | 60 | 1020.2 |
| 20260510060336 | 44 | 67 | 5.0 | 10.0 | 0.00 | 0.00 | 0.00 | 61 | 1020.2 |
| 20260510055832 | 44 | 87 | 6.0 | 9.0 | 0.00 | 0.00 | 0.00 | 60 | 1020.2 |
| 20260510055330 | 44 | 90 | 5.0 | 9.0 | 0.00 | 0.00 | 0.00 | 60 | 1020.2 |
| 20260510054825 | 44 | 47 | 5.0 | 12.0 | 0.00 | 0.00 | 0.00 | 60 | 1020.2 |
| 20260510054321 | 44 | 132 | 5.0 | 9.0 | 0.00 | 0.00 | 0.00 | 61 | 1020.1 |
| 20260510053815 | 44 | 107 | 6.0 | 11.0 | 0.00 | 0.00 | 0.00 | 60 | 1020.2 |
| 20260510053306 | 44 | 94 | 7.0 | 8.0 | 0.00 | 0.00 | 0.00 | 61 | 1020.1 |
| 20260510052802 | 44 | 86 | 2.0 | 7.0 | 0.00 | 0.00 | 0.00 | 60 | 1020.2 |
| 20260510052257 | 44 | 82 | 5.0 | 7.0 | 0.00 | 0.00 | 0.00 | 60 | 1020.2 |
| 20260510051754 | 44 | 74 | 0.0 | 7.0 | 0.00 | 0.00 | 0.00 | 61 | 1020.2 |
| 20260510051245 | 44 | 83 | 6.0 | 8.0 | 0.00 | 0.00 | 0.00 | 61 | 1020.2 |
| 20260510050742 | 44 | 75 | 4.0 | 8.0 | 0.00 | 0.00 | 0.00 | 62 | 1020.2 |
| 20260510050238 | 44 | 79 | 2.0 | 10.0 | 0.00 | 0.00 | 0.00 | 62 | 1020.4 |
| 20260510045735 | 45 | 86 | 3.0 | 9.0 | 0.00 | 0.00 | 0.00 | 61 | 1020.2 |
| 20260510045232 | 45 | 79 | 2.0 | 5.0 | 0.00 | 0.00 | 0.00 | 60 | 1020.4 |
| 20260510044728 | 45 | 120 | 5.0 | 6.0 | 0.00 | 0.00 | 0.00 | 59 | 1020.2 |
| 20260510044226 | 46 | 137 | 6.0 | 8.0 | 0.00 | 0.00 | 0.00 | 59 | 1020.2 |
| 20260510043716 | 46 | 74 | 3.0 | 10.0 | 0.00 | 0.00 | 0.00 | 59 | 1020.2 |
| 20260510043213 | 46 | 90 | 5.0 | 10.0 | 0.00 | 0.00 | 0.00 | 60 | 1020.0 |
| 20260510042710 | 45 | 88 | 5.0 | 7.0 | 0.00 | 0.00 | 0.00 | 61 | 1020.2 |
| 20260510042206 | 47 | 94 | 7.0 | 9.0 | 0.00 | 0.00 | 0.00 | 58 | 1020.1 |
| 20260510041704 | 48 | 80 | 6.0 | 7.0 | 0.00 | 0.00 | 0.00 | 57 | 1020.0 |
| 20260510041201 | 48 | 74 | 5.0 | 11.0 | 0.00 | 0.00 | 0.00 | 57 | 1019.9 |
| 20260510040657 | 48 | 97 | 4.0 | 6.0 | 0.00 | 0.00 | 0.00 | 57 | 1019.9 |
| 20260510040154 | 48 | 79 | 5.0 | 12.0 | 0.00 | 0.00 | 0.00 | 58 | 1019.9 |
| 20260510035650 | 48 | 105 | 1.0 | 10.0 | 0.00 | 0.00 | 0.00 | 56 | 1019.9 |
| 20260510035145 | 49 | 94 | 3.0 | 7.0 | 0.00 | 0.00 | 0.00 | 56 | 1019.8 |
| 20260510034642 | 49 | 109 | 3.0 | 9.0 | 0.00 | 0.00 | 0.00 | 56 | 1019.6 |
| 20260510034139 | 49 | 102 | 7.0 | 8.0 | 0.00 | 0.00 | 0.00 | 56 | 1019.8 |
| 20260510033635 | 50 | 90 | 2.0 | 7.0 | 0.00 | 0.00 | 0.00 | 55 | 1019.9 |
| 20260510033133 | 50 | 97 | 5.0 | 7.0 | 0.00 | 0.00 | 0.00 | 56 | 1019.6 |
| 20260510032630 | 50 | 90 | 1.0 | 7.0 | 0.00 | 0.00 | 0.00 | 56 | 1019.6 |
| 20260510032125 | 50 | 75 | 4.0 | 7.0 | 0.00 | 0.00 | 0.00 | 56 | 1019.5 |
| 20260510031620 | 50 | 107 | 2.0 | 7.0 | 0.00 | 0.00 | 0.00 | 56 | 1019.6 |
| 20260510031117 | 50 | 90 | 3.0 | 7.0 | 0.00 | 0.00 | 0.00 | 55 | 1019.5 |
| 20260510030611 | 50 | 105 | 2.0 | 5.0 | 0.00 | 0.00 | 0.00 | 57 | 1019.3 |
| 20260510030109 | 49 | 110 | 0.0 | 3.0 | 0.00 | 0.00 | 0.00 | 59 | 1019.1 |
| 20260510025606 | 50 | 95 | 3.0 | 5.0 | 0.00 | 0.00 | 0.00 | 60 | 1019.3 |
| 20260510025104 | 51 | 99 | 0.0 | 3.0 | 0.00 | 0.00 | 0.00 | 57 | 1019.1 |
| 20260510024600 | 51 | 90 | 2.0 | 3.0 | 0.00 | 0.00 | 0.00 | 59 | 1019.1 |
| 20260510024056 | 52 | 90 | 0.0 | 2.0 | 0.00 | 0.00 | 0.00 | 57 | 1019.0 |
| 20260510023553 | 52 | 90 | 1.0 | 3.0 | 0.00 | 0.00 | 0.00 | 58 | 1019.1 |
| 20260510023050 | 52 | 86 | 3.0 | 3.0 | 0.00 | 0.00 | 0.00 | 57 | 1018.9 |
| 20260510022544 | 54 | 90 | 2.0 | 3.0 | 0.00 | 0.00 | 0.00 | 50 | 1019.1 |
| 20260510022043 | 54 | 90 | 0.0 | 0.0 | 0.00 | 0.00 | 0.00 | 46 | 1019.0 |
| 20260510021540 | 54 | 0 | 0.0 | 0.0 | 0.00 | 0.00 | 0.00 | 45 | 1019.0 |
| 20260510021038 | 55 | 103 | 1.0 | 2.0 | 0.00 | 0.00 | 0.00 | 42 | 1018.9 |
| 20260510020532 | 55 | 35 | 0.0 | 2.0 | 0.00 | 0.00 | 0.00 | 44 | 1018.9 |
| 20260510020028 | 54 | 109 | 1.0 | 1.0 | 0.00 | 0.00 | 0.00 | 43 | 1018.9 |
| 20260510015523 | 55 | 188 | 0.0 | 0.0 | 0.00 | 0.00 | 0.00 | 43 | 1018.9 |
| 20260510015020 | 55 | 188 | 0.0 | 0.0 | 0.00 | 0.00 | 0.00 | 42 | 1019.0 |
| 20260510014516 | 55 | 120 | 0.0 | 2.0 | 0.00 | 0.00 | 0.00 | 44 | 1018.8 |
| 20260510014014 | 56 | 180 | 1.0 | 3.0 | 0.00 | 0.00 | 0.00 | 40 | 1018.9 |
| 20260510013508 | 57 | 194 | 0.0 | 2.0 | 0.00 | 0.00 | 0.00 | 41 | 1018.9 |
| 20260510013004 | 57 | 220 | 0.0 | 3.0 | 0.00 | 0.00 | 0.00 | 38 | 1018.8 |
| 20260510012458 | 57 | 220 | 3.0 | 3.0 | 0.00 | 0.00 | 0.00 | 40 | 1018.8 |
| 20260510011954 | 59 | 225 | 3.0 | 3.0 | 0.00 | 0.00 | 0.00 | 41 | 1018.8 |
| 20260510011449 | 60 | 0 | 0.0 | 2.0 | 0.00 | 0.00 | 0.00 | 38 | 1018.8 |
| 20260510010945 | 60 | 352 | 0.0 | 7.0 | 0.00 | 0.00 | 0.00 | 38 | 1018.8 |
| 20260510010443 | 60 | 328 | 2.0 | 4.0 | 0.00 | 0.00 | 0.00 | 36 | 1018.8 |
| 20260510005939 | 62 | 315 | 0.0 | 3.0 | 0.00 | 0.00 | 0.00 | 36 | 1018.7 |
| 20260510005435 | 61 | 270 | 5.0 | 5.0 | 0.00 | 0.00 | 0.00 | 37 | 1018.7 |
| 20260510004933 | 61 | 254 | 0.0 | 3.0 | 0.00 | 0.00 | 0.00 | 42 | 1018.8 |
| 20260510004430 | 60 | 297 | 3.0 | 3.0 | 0.00 | 0.00 | 0.00 | 43 | 1018.8 |
| 20260510003928 | 58 | 204 | 2.0 | 4.0 | 0.00 | 0.00 | 0.00 | 42 | 1018.7 |
| 20260510003425 | 57 | 289 | 2.0 | 4.0 | 0.00 | 0.00 | 0.00 | 42 | 1018.8 |
| 20260510002924 | 57 | 303 | 3.0 | 6.0 | 0.00 | 0.00 | 0.00 | 43 | 1018.7 |
| 20260510002421 | 58 | 279 | 3.0 | 7.0 | 0.00 | 0.00 | 0.00 | 41 | 1018.8 |
| 20260510001917 | 59 | 239 | 2.0 | 8.0 | 0.00 | 0.00 | 0.00 | 42 | 1018.8 |
| 20260510001415 | 60 | 289 | 3.0 | 6.0 | 0.00 | 0.00 | 0.00 | 41 | 1018.7 |
| 20260510000912 | 59 | 203 | 4.0 | 4.0 | 0.00 | 0.00 | 0.00 | 40 | 1018.7 |
| 20260510000411 | 59 | 203 | 0.0 | 1.0 | 0.00 | 0.00 | 0.00 | 39 | 1018.8 |
| 20260509235905 | 57 | 356 | 2.0 | 2.0 | 0.00 | 0.00 | 0.00 | 40 | 1018.7 |
| 20260509235402 | 56 | 331 | 0.0 | 5.0 | 0.00 | 0.00 | 0.00 | 44 | 1018.7 |
| 20260509234858 | 56 | 279 | 0.0 | 5.0 | 0.00 | 0.00 | 0.00 | 43 | 1018.5 |
| 20260509234355 | 56 | 287 | 3.0 | 4.0 | 0.00 | 0.00 | 0.00 | 44 | 1018.7 |
| 20260509233853 | 56 | 19 | 2.0 | 5.0 | 0.00 | 0.00 | 0.00 | 43 | 1018.7 |
| 20260509233351 | 57 | 270 | 3.0 | 5.0 | 0.00 | 0.00 | 0.00 | 44 | 1018.4 |
| 20260509232846 | 57 | 290 | 4.0 | 6.0 | 0.00 | 0.00 | 0.00 | 43 | 1018.7 |
| 20260509232345 | 58 | 288 | 5.0 | 6.0 | 0.00 | 0.00 | 0.00 | 42 | 1018.4 |
| 20260509231840 | 58 | 7 | 2.0 | 5.0 | 0.00 | 0.00 | 0.00 | 41 | 1018.5 |
| 20260509231337 | 57 | 283 | 2.0 | 5.0 | 0.00 | 0.00 | 0.00 | 44 | 1018.5 |
| 20260509230835 | 56 | 296 | 4.0 | 5.0 | 0.00 | 0.00 | 0.00 | 44 | 1018.4 |
| 20260509230332 | 56 | 282 | 6.0 | 6.0 | 0.00 | 0.00 | 0.00 | 43 | 1018.5 |
| 20260509225826 | 57 | 250 | 4.0 | 8.0 | 0.00 | 0.00 | 0.00 | 42 | 1018.4 |
| 20260509225324 | 57 | 279 | 2.0 | 6.0 | 0.00 | 0.00 | 0.00 | 39 | 1018.7 |
| 20260509224820 | 60 | 310 | 4.0 | 10.0 | 0.00 | 0.00 | 0.00 | 41 | 1018.7 |
| 20260509224316 | 60 | 270 | 7.0 | 10.0 | 0.00 | 0.00 | 0.00 | 39 | 1018.5 |
| 20260509223812 | 59 | 265 | 4.0 | 9.0 | 0.00 | 0.00 | 0.00 | 41 | 1018.5 |
| 20260509223310 | 60 | 311 | 3.0 | 12.0 | 0.00 | 0.00 | 0.00 | 39 | 1018.5 |
| 20260509222807 | 60 | 305 | 4.0 | 9.0 | 0.00 | 0.00 | 0.00 | 40 | 1018.8 |
| 20260509222306 | 58 | 252 | 4.0 | 10.0 | 0.00 | 0.00 | 0.00 | 39 | 1018.7 |
| 20260509221758 | 61 | 273 | 3.0 | 12.0 | 0.00 | 0.00 | 0.00 | 40 | 1018.5 |
| 20260509221255 | 59 | 270 | 1.0 | 6.0 | 0.00 | 0.00 | 0.00 | 41 | 1018.7 |
| 20260509220750 | 59 | 291 | 1.0 | 9.0 | 0.00 | 0.00 | 0.00 | 38 | 1018.5 |
| 20260509220247 | 58 | 280 | 7.0 | 11.0 | 0.00 | 0.00 | 0.00 | 39 | 1018.5 |
| 20260509215742 | 58 | 240 | 1.0 | 6.0 | 0.00 | 0.00 | 0.00 | 39 | 1018.8 |
| 20260509215239 | 60 | 350 | 3.0 | 8.0 | 0.00 | 0.00 | 0.00 | 39 | 1018.7 |
| 20260509214736 | 60 | 311 | 5.0 | 8.0 | 0.00 | 0.00 | 0.00 | 43 | 1018.8 |
| 20260509214234 | 61 | 278 | 4.0 | 11.0 | 0.00 | 0.00 | 0.00 | 42 | 1018.5 |
| 20260509213731 | 60 | 288 | 10.0 | 15.0 | 0.00 | 0.00 | 0.00 | 40 | 1018.7 |
| 20260509213226 | 58 | 276 | 5.0 | 16.0 | 0.00 | 0.00 | 0.00 | 40 | 1018.7 |
| 20260509212723 | 59 | 223 | 4.0 | 11.0 | 0.00 | 0.00 | 0.00 | 39 | 1018.5 |
| 20260509212220 | 60 | 249 | 11.0 | 13.0 | 0.00 | 0.00 | 0.00 | 39 | 1018.7 |
| 20260509211716 | 60 | 292 | 7.0 | 15.0 | 0.00 | 0.00 | 0.00 | 41 | 1018.7 |
| 20260509211213 | 59 | 280 | 2.0 | 9.0 | 0.00 | 0.00 | 0.00 | 40 | 1018.7 |
| 20260509210709 | 57 | 246 | 1.0 | 9.0 | 0.00 | 0.00 | 0.00 | 42 | 1018.5 |
| 20260509210207 | 57 | 284 | 11.0 | 12.0 | 0.00 | 0.00 | 0.00 | 38 | 1018.5 |
| 20260509205707 | 57 | 238 | 3.0 | 17.0 | 0.00 | 0.00 | 0.00 | 37 | 1018.4 |
| 20260509205206 | 58 | 227 | 9.0 | 9.0 | 0.00 | 0.00 | 0.00 | 40 | 1018.7 |
| 20260509204703 | 59 | 206 | 7.0 | 15.0 | 0.00 | 0.00 | 0.00 | 41 | 1018.5 |
| 20260509204159 | 58 | 357 | 2.0 | 9.0 | 0.00 | 0.00 | 0.00 | 39 | 1018.7 |
| 20260509203655 | 60 | 276 | 5.0 | 9.0 | 0.00 | 0.00 | 0.00 | 38 | 1018.7 |
| 20260509203154 | 58 | 0 | 2.0 | 9.0 | 0.00 | 0.00 | 0.00 | 40 | 1018.7 |
| 20260509202649 | 58 | 343 | 3.0 | 13.0 | 0.00 | 0.00 | 0.00 | 45 | 1018.7 |
| 20260509202144 | 56 | 257 | 4.0 | 10.0 | 0.00 | 0.00 | 0.00 | 44 | 1018.5 |
| 20260509201639 | 59 | 315 | 7.0 | 22.0 | 0.00 | 0.00 | 0.00 | 39 | 1018.4 |
| 20260509201137 | 58 | 229 | 8.0 | 10.0 | 0.00 | 0.00 | 0.00 | 38 | 1018.5 |
| 20260509200633 | 57 | 240 | 8.0 | 8.0 | 0.00 | 0.00 | 0.00 | 41 | 1018.7 |
| 20260509200128 | 59 | 255 | 6.0 | 12.0 | 0.00 | 0.00 | 0.00 | 41 | 1018.7 |
| 20260509195624 | 56 | 216 | 9.0 | 14.0 | 0.00 | 0.00 | 0.00 | 44 | 1018.5 |
| 20260509195119 | 57 | 210 | 9.0 | 11.0 | 0.00 | 0.00 | 0.00 | 42 | 1018.5 |
| 20260509194618 | 55 | 240 | 3.0 | 7.0 | 0.00 | 0.00 | 0.00 | 40 | 1018.5 |
| 20260509194116 | 55 | 226 | 6.0 | 9.0 | 0.00 | 0.00 | 0.00 | 46 | 1018.7 |
| 20260509193612 | 57 | 298 | 9.0 | 12.0 | 0.00 | 0.00 | 0.00 | 45 | 1018.5 |
| 20260509193103 | 57 | 228 | 9.0 | 11.0 | 0.00 | 0.00 | 0.00 | 46 | 1018.7 |
| 20260509192559 | 56 | 275 | 6.0 | 7.0 | 0.00 | 0.00 | 0.00 | 43 | 1018.5 |
| 20260509192048 | 56 | 261 | 6.0 | 10.0 | 0.00 | 0.00 | 0.00 | 43 | 1018.7 |
| 20260509191548 | 53 | 294 | 5.0 | 7.0 | 0.00 | 0.00 | 0.00 | 45 | 1018.7 |
| 20260509191044 | 53 | 293 | 5.0 | 9.0 | 0.00 | 0.00 | 0.00 | 47 | 1018.8 |
| 20260509190541 | 54 | 290 | 11.0 | 15.0 | 0.00 | 0.00 | 0.00 | 46 | 1018.7 |
| 20260509190040 | 56 | 338 | 5.0 | 7.0 | 0.00 | 0.00 | 0.00 | 46 | 1018.7 |